Champaign, IL

8:39 AM CDT on October 19, 2017 (GMT -0500)
Univ Of Illinois-Willard

Weather History for KCMI - February, 2014

Change the Weather History Date:

Thursday, February 20, 2014

  Actual Average Record
Temperature  
Mean Temperature 46 °F 31 °F  
Max Temperature 58 °F 39 °F 72 °F (2017)
Min Temperature 34 °F 23 °F -3 °F (2015)
Degree Days  
Heating Degree Days 19 34  
Month to date heating degree days 966 736  
Since 1 July heating degree days 4746 4246  
Cooling Degree Days 0 0  
Month to date cooling degree days 0 0  
Year to date cooling degree days 0 0  
Moisture  
Dew Point 42 °F    
Average Humidity 88    
Maximum Humidity 100    
Minimum Humidity 75    
Precipitation  
Precipitation 0.70 in 0.07 in 1.64 in (1951)
Month to date precipitation 1.78 1.45  
Year to date precipitation 2.49 3.50  
Sea Level Pressure  
Sea Level Pressure 29.51 in    
Wind  
Wind Speed 22 mph (South)    
Max Wind Speed 40 mph    
Max Gust Speed 55 mph    
Visibility 5 miles    
Events Fog , Rain , Thunderstorm    
T = Trace of Precipitation, MM = Missing Value Source: NWS Daily Summary

Daily Weather History Graph

Daily Weather History Graph

Search for Another Location

Airport or City:

Trip Planner

Search our weather history database for the weather conditions in past years. The results will help you decide how hot, cold, wet, or windy it might be!

Date:

Astronomy

Feb. 20, 2014 Rise Set
Actual Time 6:39 AM CST 5:34 PM CST
Civil Twilight 6:11 AM CST 6:02 PM CST
Nautical Twilight 5:40 AM CST 6:33 PM CST
Astronomical Twilight 5:08 AM CST 7:05 PM CST
Moon 11:29 PM CST (2/20) 9:22 AM CST (2/20)
Length of Visible Light 11h 50m
Length of Day
10h 55m
Waning Gibbous, 70% of the Moon is Illuminated
Feb 20
Waning Gibbous
Feb 22
Last Quarter
Mar 1
New
Mar 8
First Quarter
Mar 16
Full

Hourly Weather History & Observations

Time (CST) Temp. Windchill Dew Point Humidity Pressure Visibility Wind Dir Wind Speed Gust Speed Precip Events Conditions
12:53 AM 35.1 °F 26.4 °F 30.9 °F 85% 29.85 in 9.0 mi East 12.7 mph - N/A   Overcast
1:53 AM 36.0 °F 26.3 °F 30.9 °F 82% 29.81 in 7.0 mi ESE 16.1 mph - 0.01 in Rain Light Rain
2:53 AM 36.0 °F 25.3 °F 32.0 °F 86% 29.74 in 10.0 mi ESE 19.6 mph - 0.08 in   Overcast
3:10 AM 35.6 °F 25.2 °F 32.0 °F 87% 29.71 in 10.0 mi ESE 18.4 mph - N/A   Overcast
3:53 AM 36.0 °F 25.6 °F 32.0 °F 86% 29.69 in 10.0 mi ESE 18.4 mph - 0.01 in Rain , Thunderstorm Light Rain
4:10 AM 35.6 °F 25.2 °F 32.0 °F 87% 29.66 in 10.0 mi ESE 18.4 mph - 0.00 in   Overcast
4:32 AM 35.6 °F 25.2 °F 32.0 °F 87% 29.64 in 10.0 mi SE 18.4 mph - 0.00 in Rain , Thunderstorm Light Thunderstorms and Rain
4:53 AM 37.0 °F 26.4 °F 33.1 °F 86% 29.64 in 10.0 mi SE 20.7 mph - 0.00 in Rain Light Rain
5:02 AM 37.4 °F 26.6 °F 33.8 °F 87% 29.62 in 10.0 mi SE 21.9 mph - 0.00 in Rain Light Rain
5:53 AM 39.0 °F 29.3 °F 35.1 °F 86% 29.61 in 10.0 mi SSE 19.6 mph - 0.01 in   Mostly Cloudy
6:53 AM 39.9 °F 30.8 °F 37.0 °F 89% 29.60 in 9.0 mi South 18.4 mph - N/A   Mostly Cloudy
7:53 AM 41.0 °F 33.5 °F 39.0 °F 93% 29.61 in 5.0 mi South 13.8 mph - 0.01 in Rain Light Rain
8:14 AM 41.0 °F 31.9 °F 39.2 °F 93% 29.59 in 2.0 mi South 19.6 mph 32.2 mph 0.04 in Rain Rain
8:53 AM 43.0 °F 32.7 °F 43.0 °F 100% 29.52 in 2.5 mi SSE 28.8 mph 38.0 mph 0.06 in Rain Light Rain
9:01 AM 44.6 °F 35.7 °F 42.8 °F 93% 29.52 in 2.5 mi South 24.2 mph 35.7 mph N/A   Mostly Cloudy
9:29 AM 44.6 °F 39.2 °F 44.6 °F 100% 29.56 in 0.8 mi West 10.4 mph 21.9 mph N/A   Mostly Cloudy
9:32 AM 42.8 °F 36.6 °F 42.8 °F 100% 29.56 in 0.2 mi WNW 11.5 mph 21.9 mph N/A Fog Fog
9:42 AM 46.4 °F 40.7 °F 46.4 °F 100% 29.55 in 1.0 mi SW 12.7 mph 21.9 mph N/A   Mostly Cloudy
9:53 AM 44.1 °F 37.7 °F 44.1 °F 100% 29.56 in 1.0 mi SSW 12.7 mph - N/A   Mostly Cloudy
9:57 AM 42.8 °F 36.6 °F 42.8 °F 100% 29.55 in 1.5 mi SSW 11.5 mph - N/A   Scattered Clouds
10:13 AM 44.6 °F 40.7 °F 42.8 °F 93% 29.55 in 2.0 mi WSW 6.9 mph - N/A   Scattered Clouds
10:19 AM 44.6 °F 41.4 °F 42.8 °F 93% 29.54 in 2.0 mi WSW 5.8 mph - N/A   Mostly Cloudy
10:21 AM 44.6 °F 41.4 °F 42.8 °F 93% 29.54 in 2.0 mi WSW 5.8 mph - N/A   Mostly Cloudy
10:33 AM 44.6 °F 40.7 °F 42.8 °F 93% 29.54 in 0.8 mi South 6.9 mph - N/A   Overcast
10:44 AM 42.8 °F 37.0 °F 42.8 °F 100% 29.53 in 0.2 mi South 10.4 mph - N/A Fog Fog
10:53 AM 45.0 °F 38.2 °F 44.1 °F 97% 29.54 in 0.2 mi South 15.0 mph - N/A Fog Fog
11:01 AM 44.6 °F 38.4 °F 42.8 °F 93% 29.52 in 0.8 mi South 12.7 mph - N/A   Overcast
11:08 AM 44.6 °F 38.8 °F 42.8 °F 93% 29.52 in 1.0 mi South 11.5 mph - N/A   Overcast
11:53 AM 46.9 °F - 46.0 °F 97% 29.49 in 1.0 mi SSE 16.1 mph - N/A   Mostly Cloudy
12:09 PM 48.2 °F - 46.4 °F 93% 29.46 in 1.5 mi SSE 21.9 mph - N/A   Overcast
12:11 PM 48.2 °F - 46.4 °F 93% 29.46 in 2.0 mi SSE 20.7 mph - N/A   Overcast
12:53 PM 48.9 °F - 48.0 °F 97% 29.44 in 2.5 mi SSE 20.7 mph - N/A   Overcast
1:53 PM 51.1 °F - 50.0 °F 96% 29.39 in 2.0 mi South 20.7 mph - N/A   Overcast
2:02 PM 51.8 °F - 50.0 °F 94% 29.38 in 2.0 mi South 23.0 mph - N/A   Overcast
2:26 PM 51.8 °F - 51.8 °F 100% 29.38 in 2.0 mi South 23.0 mph 32.2 mph N/A   Overcast
2:53 PM 52.0 °F - 51.1 °F 97% 29.39 in 2.0 mi South 21.9 mph 29.9 mph N/A   Overcast
3:00 PM 51.8 °F - 51.8 °F 100% 29.37 in 2.0 mi South 21.9 mph - N/A   Overcast
3:14 PM 53.6 °F - 51.8 °F 94% 29.36 in 2.0 mi SSE 23.0 mph 29.9 mph N/A   Overcast
3:29 PM 53.6 °F - 51.8 °F 94% 29.34 in 1.8 mi South 21.9 mph 29.9 mph N/A   Mostly Cloudy
3:53 PM 54.0 °F - 53.1 °F 97% 29.33 in 2.0 mi SSE 21.9 mph 31.1 mph N/A   Mostly Cloudy
4:02 PM 55.4 °F - 53.6 °F 94% 29.31 in 2.0 mi SSE 23.0 mph 31.1 mph N/A   Scattered Clouds
4:53 PM 55.0 °F - 53.1 °F 93% 29.29 in 2.0 mi SSE 25.3 mph 32.2 mph 0.00 in Rain Light Rain
5:12 PM 53.6 °F - 53.6 °F 100% 29.29 in 1.8 mi South 20.7 mph 35.7 mph 0.07 in Rain , Thunderstorm Heavy Thunderstorms and Rain
5:22 PM 53.6 °F - 51.8 °F 94% 29.33 in 0.2 mi SW 31.1 mph 36.8 mph 0.46 in Fog , Rain , Thunderstorm Heavy Thunderstorms and Rain
5:24 PM 55.4 °F - 53.6 °F 94% 29.31 in 0.2 mi SSW 21.9 mph 36.8 mph 0.51 in Fog , Rain , Thunderstorm Heavy Rain
5:32 PM 57.2 °F - 55.4 °F 94% 29.32 in 0.8 mi SW 20.7 mph 27.6 mph 0.51 in Rain , Thunderstorm Light Rain
5:34 PM 57.2 °F - 53.6 °F 88% 29.32 in 3.0 mi SW 20.7 mph 27.6 mph 0.51 in Rain Light Rain
5:50 PM 53.6 °F - 51.8 °F 94% 29.36 in 8.0 mi WSW 20.7 mph 35.7 mph 0.51 in   Scattered Clouds
5:53 PM 53.1 °F - 50.0 °F 89% 29.37 in 9.0 mi WSW 17.3 mph 27.6 mph 0.51 in   Scattered Clouds
6:53 PM 44.1 °F 33.5 °F 37.0 °F 76% 29.48 in 10.0 mi WSW 33.4 mph 44.9 mph 0.01 in   Partly Cloudy
7:13 PM 42.8 °F 31.1 °F 35.6 °F 76% 29.51 in 10.0 mi WSW 38.0 mph 52.9 mph N/A   Mostly Cloudy
7:53 PM 39.0 °F 26.1 °F 32.0 °F 76% 29.54 in 10.0 mi WSW 36.8 mph 51.8 mph N/A   Overcast
8:49 PM 37.4 °F 24.4 °F 32.0 °F 81% 29.54 in 10.0 mi West 33.4 mph 44.9 mph N/A   Mostly Cloudy
8:53 PM 37.9 °F 25.3 °F 30.9 °F 76% 29.55 in 10.0 mi West 32.2 mph 44.9 mph N/A   Mostly Cloudy
9:53 PM 37.0 °F 24.3 °F 30.0 °F 76% 29.58 in 10.0 mi West 31.1 mph 43.7 mph N/A   Clear
10:53 PM 36.0 °F 24.2 °F 28.9 °F 76% 29.58 in 10.0 mi WSW 24.2 mph 33.4 mph N/A   Clear
11:53 PM 35.1 °F 24.1 °F 30.0 °F 82% 29.58 in 10.0 mi SW 19.6 mph - N/A   Clear